EDT,Max TemperatureF,Mean TemperatureF,Min TemperatureF,Max Dew PointF,MeanDew PointF,Min DewpointF,Max Humidity, Mean Humidity, Min Humidity, Max Sea Level PressureIn, Mean Sea Level PressureIn, Min Sea Level PressureIn, Max VisibilityMiles, Mean VisibilityMiles, Min VisibilityMiles, Max Wind SpeedMPH, Mean Wind SpeedMPH, Max Gust SpeedMPH,PrecipitationIn, CloudCover, Events, WindDirDegrees
2013-3-1,48,40,33,35,28,23,96,66,41,29.70,29.62,29.54,10,10,9,13,5,21,0.00,6,,331
2013-3-2,39,36,32,27,25,23,75,61,55,29.72,29.68,29.65,10,10,10,10,5,17,0.00,8,,315
2013-3-3,39,34,30,26,24,21,82,64,53,29.67,29.64,29.60,10,10,10,10,6,,0.00,8,,312
2013-3-4,41,34,28,23,20,19,75,58,45,29.78,29.69,29.64,10,10,10,14,9,30,0.00,3,,312
2013-3-5,46,38,30,32,25,20,92,65,44,30.06,29.96,29.80,10,10,10,14,8,25,0.00,3,,334
2013-3-6,42,35,28,34,31,25,96,79,49,30.04,29.97,29.90,10,9,5,21,10,39,0.00,7,Rain-Snow,49
2013-3-7,39,36,32,32,29,26,89,78,65,29.96,29.92,29.87,10,7,2,29,20,44,0.00,8,Snow,9
2013-3-8,41,36,30,31,27,18,93,80,41,30.09,29.94,29.90,10,4,1,21,14,36,0.00,7,Snow,3
2013-3-9,54,43,30,28,20,12,85,46,20,30.34,30.21,30.10,10,10,10,17,11,25,0.00,0,,24
2013-3-10,43,34,25,34,30,23,93,82,60,30.40,30.36,30.34,10,10,9,13,3,17,0.00,2,,149
2013-3-11,46,42,37,43,38,33,97,88,82,30.34,30.27,30.17,10,10,8,12,6,,0.00,7,,162
2013-3-12,50,46,42,49,47,41,100,97,90,30.16,29.89,29.75,9,4,1,23,11,32,0.50,7,Rain,172
2013-3-13,52,42,34,48,32,21,100,68,33,29.82,29.79,29.74,10,9,1,14,7,23,0.00,3,Rain,315
2013-3-14,36,32,28,28,19,8,93,63,34,29.88,29.82,29.77,10,8,1,16,5,31,0.00,6,Snow,304
2013-3-15,41,33,27,28,15,5,68,48,34,29.91,29.81,29.71,10,10,10,17,10,31,0.00,4,,274
2013-3-16,39,34,30,27,19,8,75,53,28,29.89,29.83,29.74,10,10,10,9,6,16,0.00,5,,275
2013-3-17,39,32,28,26,12,3,76,45,24,30.30,30.07,29.90,10,10,10,17,6,25,0.00,1,,319
2013-3-18,34,28,21,30,17,-1,93,62,28,30.45,30.32,30.17,10,7,1,17,8,24,0.00,4,Snow,85
2013-3-19,42,36,30,39,34,30,100,93,85,30.14,29.79,29.58,10,6,2,20,13,31,0.19,7,Rain-Snow,30
2013-3-20,43,36,30,30,22,16,93,60,36,29.83,29.80,29.72,10,10,10,17,8,28,0.00,1,,269
2013-3-21,42,34,28,29,24,19,93,69,48,29.83,29.69,29.60,10,9,2,15,4,20,0.00,7,Snow,343
2013-3-22,41,33,27,22,15,11,64,46,32,29.80,29.72,29.65,10,10,10,14,8,21,0.00,4,,294
2013-3-23,46,38,32,22,18,14,66,47,29,29.86,29.78,29.70,10,10,10,15,8,30,0.00,2,,293
2013-3-24,48,39,30,32,23,17,89,57,34,29.88,29.81,29.72,10,10,10,12,4,20,0.00,0,,279
2013-3-25,46,37,30,34,29,22,100,75,43,29.75,29.57,29.46,10,9,4,17,6,32,0.02,5,Rain-Snow,34
2013-3-26,46,38,30,32,27,22,86,66,47,29.82,29.69,29.52,10,10,10,10,6,,0.00,5,Rain,310
2013-3-27,53,38,26,29,24,21,89,55,31,29.88,29.83,29.79,10,10,10,13,4,24,0.00,3,,306
2013-3-28,48,42,37,38,31,27,93,68,48,30.05,29.95,29.88,10,10,10,10,5,16,0.00,6,Rain,307
2013-3-29,54,46,39,34,31,26,76,58,43,30.08,30.05,30.01,10,10,10,15,6,23,0.00,2,,293
2013-3-30,55,46,39,34,28,19,68,49,25,30.13,30.08,30.04,10,10,10,13,6,24,0.00,3,,284
2013-3-31,52,40,28,45,36,25,100,80,52,30.14,30.01,29.68,10,9,3,14,4,22,0.09,3,Rain,152